Location: Springville
(37.3745°N, 89.2676°W)
Time: 23:36:07
(UTC+00:00)

Cosmos 1825 Rocket - Pass Details

Date: 29 October 2020
Orbit: 603 x 632 km, 82.5° (Epoch: 04 December)

Event Time Altitude Azimuth Distance (km) Brightness Sun altitude
Rises 23:38:55 0° 347° (NNW) 2,916 7.0 -8.0°
Reaches altitude 10° 23:41:12 10° 343° (NNW) 2,001 6.3 -8.4°
Maximum altitude 23:45:30 54° 267° (W) 757 4.5 -9.3°
Drops below altitude 10° 23:49:46 10° 190° (S) 1,969 6.4 -10.1°
Sets 23:52:00 0° 185° (S) 2,865 7.2 -10.6°
